DW6352 Weather Reports


time (UTC)temp
F
wind
direction
speed
knots
gust
knots
rain 1hr
in
rain 24hr
in
rain mn
in
humidity
%
barometer
mb
20260505230037 47 266 7.8 12.2 0.00 0.00 0.00 43 1010.2
20260505224526 47 317 8.7 19.1 0.00 0.00 0.00 41 1010.1
20260505223028 48 250 9.6 16.5 0.00 0.00 0.00 41 1009.9
20260505221525 47 252 7.8 15.6 0.00 0.00 0.00 42 1010.0
20260505220027 47 307 6.1 15.6 0.00 0.00 0.00 41 1010.0
20260505214524 47 304 7.8 15.6 0.00 0.00 0.00 39 1010.0
20260505213027 48 246 8.7 17.4 0.00 0.00 0.00 42 1010.0
20260505211523 47 286 7.0 14.8 0.00 0.00 0.00 41 1010.0
20260505210022 48 248 10.4 18.2 0.00 0.00 0.00 41 1010.1
20260505204522 47 308 10.4 16.5 0.00 0.00 0.00 40 1010.1
20260505203120 47 310 11.3 18.2 0.00 0.00 0.00 41 1010.2
20260505201519 46 249 8.7 17.4 0.00 0.00 0.00 43 1010.2
20260505200017 47 282 6.1 17.4 0.00 0.00 0.00 42 1010.3
20260505194516 46 296 8.7 16.5 0.00 0.00 0.00 45 1010.3
20260505193015 46 252 7.8 16.5 0.00 0.00 0.00 43 1010.2
20260505191514 46 261 8.7 15.6 0.00 0.00 0.00 43 1010.3
20260505190024 46 306 6.1 13.0 0.00 0.00 0.00 43 1010.3
20260505184514 46 273 9.6 17.4 0.00 0.00 0.00 43 1010.3
20260505183013 45 291 8.7 20.0 0.00 0.00 0.00 43 1010.3
20260505181512 46 309 11.3 19.1 0.00 0.00 0.00 44 1010.3
20260505180010 45 236 7.8 13.0 0.00 0.00 0.00 44 1010.2
20260505174508 44 279 10.4 16.5 0.00 0.00 0.00 43 1010.3
20260505173008 44 288 9.6 16.5 0.00 0.00 0.00 45 1010.4
20260505171508 44 323 7.0 18.2 0.00 0.00 0.00 46 1010.3
20260505170014 44 309 7.8 16.5 0.00 0.00 0.00 46 1010.4
20260505164506 44 315 10.4 18.2 0.00 0.00 0.00 48 1010.2
20260505163009 43 260 8.7 19.1 0.00 0.00 0.00 47 1010.2
20260505161502 43 320 7.8 18.2 0.00 0.00 0.00 49 1010.2
20260505153056 41 332 11.3 16.5 0.00 0.00 0.00 53 1010.0
20260505151611 40 298 7.8 18.2 0.00 0.00 0.00 52 1010.0
20260505124532 36 288 7.0 14.8 0.00 0.00 0.00 54 1008.7
20260505123028 36 289 7.8 13.0 0.00 0.00 0.00 56 1008.5
20260505121528 35 291 7.8 13.0 0.00 0.00 0.00 58 1008.4
20260505120048 34 288 7.8 12.2 0.00 0.00 0.00 60 1008.1
20260505114515 34 315 7.0 12.2 0.00 0.00 0.00 62 1007.8
20260505113013 34 295 6.1 13.0 0.00 0.00 0.00 64 1007.7
20260505111509 34 284 6.1 13.0 0.00 0.00 0.00 65 1007.6
20260505101600 35 277 4.3 10.4 0.00 0.00 0.00 66 1006.9
20260505100057 35 288 6.1 8.7 0.00 0.00 0.00 66 1007.0
20260505094554 35 288 4.3 10.4 0.00 0.00 0.00 66 1006.9
20260505093054 36 293 5.2 12.2 0.00 0.00 0.00 66 1006.8
20260505091548 36 302 6.1 13.9 0.00 0.00 0.00 66 1006.6
20260505090050 37 312 6.1 12.2 0.00 0.00 0.00 66 1006.4
20260505084544 37 303 7.0 12.2 0.00 0.00 0.00 65 1006.2
20260505083041 37 270 7.8 12.2 0.00 0.00 0.00 65 1006.0
20260505081540 37 296 5.2 11.3 0.00 0.00 0.00 65 1005.8
20260505080038 38 267 5.2 10.4 0.00 0.00 0.00 64 1005.8
20260505074533 38 283 5.2 10.4 0.00 0.00 0.00 64 1005.7
20260505073046 38 304 5.2 10.4 0.00 0.00 0.00 63 1005.7
20260505071530 38 288 4.3 12.2 0.00 0.00 0.00 62 1005.6
20260505070028 39 312 4.3 13.0 0.00 0.00 0.00 61 1005.5
20260505064537 39 315 3.5 8.7 0.00 0.00 0.00 60 1005.5
20260505063023 39 244 2.6 7.8 0.00 0.00 0.00 60 1005.3
20260505061530 40 238 3.5 8.7 0.00 0.00 0.00 58 1005.3
20260505060017 40 336 4.3 9.6 0.00 0.00 0.00 58 1005.2
20260505054514 41 280 5.2 10.4 0.00 0.00 0.00 57 1005.1
20260505053011 41 236 4.3 10.4 0.00 0.00 0.00 56 1004.8
20260505051509 42 247 4.3 9.6 0.00 0.00 0.00 55 1004.7
20260505041601 43 302 3.5 9.6 0.00 0.00 0.00 52 1004.6
20260505040057 43 259 4.3 7.8 0.00 0.00 0.00 52 1004.6
20260505034555 44 234 3.5 9.6 0.00 0.00 0.00 51 1004.6
20260505033053 44 268 3.5 10.4 0.00 0.00 0.00 51 1004.4
20260505031606 44 261 2.6 8.7 0.00 0.00 0.00 50 1004.5
20260505030050 44 298 4.3 9.6 0.00 0.00 0.00 50 1004.4
20260505024547 44 290 1.7 6.1 0.00 0.00 0.00 49 1004.3
20260505023051 44 225 3.5 9.6 0.00 0.00 0.00 48 1004.1
20260505021542 45 279 2.6 8.7 0.00 0.00 0.00 48 1003.9
20260505020040 45 298 1.7 6.1 0.00 0.00 0.00 47 1003.7
20260505014539 45 275 3.5 7.8 0.00 0.00 0.00 46 1003.4
20260505013036 46 309 4.3 9.6 0.00 0.00 0.00 45 1003.4
20260505011535 46 277 5.2 13.9 0.00 0.00 0.00 44 1003.2
20260505010032 47 300 6.1 13.0 0.00 0.00 0.00 44 1002.9
20260505004630 47 303 7.8 20.9 0.00 0.00 0.00 42 1002.8
20260505003027 48 301 10.4 20.9 0.00 0.00 0.00 44 1002.8
20260505001525 48 238 12.2 20.9 0.00 0.00 0.00 44 1002.6
20260505000035 48 297 11.3 20.9 0.00 0.00 0.00 44 1002.4
20260504234519 49 310 10.4 18.2 0.00 0.00 0.00 42 1002.1
20260504233016 50 294 12.2 24.3 0.00 0.00 0.00 40 1002.0
20260504231513 50 313 12.2 24.3 0.00 0.00 0.00 38 1001.7